Location: Amsterdam
(30.7274°N, 84.4357°W)
Time: 23:01:51
(UTC+00:00)

Transit 2A Rocket - All Passes

Search period start: 16 February 2026 00:00
Search period end: 26 February 2026 00:00
Orbit: 582 x 901 km, 66.7° (Epoch: 16 February)

Date Brightness Start Highest point End Pass type
(mag) Time Alt. Az. Time Alt. Az. Time Alt. Az.
16 Feb - 07:21:30 10° NNW 07:26:46 68° ENE 07:31:30 10° SSE night (unlit)
16 Feb - 20:06:58 10° SE 20:10:45 18° ESE 20:14:35 10° ENE daylight
16 Feb - 21:46:48 10° SW 21:52:37 57° WNW 21:58:34 10° NNE daylight
17 Feb - 06:36:15 10° N 06:41:00 33° ENE 06:45:22 10° ESE night (unlit)
17 Feb - 08:19:14 10° WNW 08:23:02 21° WSW 08:26:36 10° SSW night (unlit)
17 Feb - 21:01:05 10° SSW 21:06:59 79° ESE 21:13:02 10° NNE daylight
17 Feb - 22:46:40 10° W 22:50:01 15° NW 22:53:22 10° NNW daylight
18 Feb - 05:51:32 10° N 05:55:03 18° NE 05:58:22 10° E night (unlit)
18 Feb - 07:32:47 10° NW 07:37:43 45° WSW 07:42:12 10° S night (unlit)
18 Feb - 20:16:00 10° S 20:21:29 41° ESE 20:27:06 10° NE daylight
18 Feb - 21:59:02 10° WSW 22:03:59 27° WNW 22:08:59 10° N daylight
19 Feb - 06:46:58 10° NNW 06:52:13 84° ENE 06:56:57 10° SSE night (unlit)
19 Feb - 19:31:46 10° SSE 19:36:07 22° ESE 19:40:33 10° ENE daylight
19 Feb - 21:12:26 10° SW 21:18:08 47° WNW 21:23:57 10° NNE daylight
20 Feb - 06:01:35 10° N 06:06:31 40° ENE 06:11:00 10° SE night (unlit)
20 Feb - 07:45:12 10° WNW 07:48:22 17° WSW 07:51:23 10° SW night (unlit)
20 Feb - 18:50:18 10° ESE 18:50:53 10° E 18:51:28 10° E daylight
20 Feb - 20:26:30 10° SSW 20:32:27 87° WNW 20:38:31 10° NNE daylight
20 Feb - 22:13:07 10° WNW 22:15:38 13° NW 22:18:10 10° NNW daylight
21 Feb - 05:16:41 10° N 05:20:37 21° NE 05:24:17 10° ESE night (unlit)
21 Feb - 06:58:26 10° NW 07:03:05 36° WSW 07:07:21 10° S night (unlit)
21 Feb - 19:41:13 10° S 19:46:55 50° ESE 19:52:43 10° NE daylight
21 Feb - 21:24:57 10° WSW 21:29:33 23° NW 21:34:12 10° N daylight
22 Feb - 04:33:04 10° NNE 04:34:31 11° NE 04:35:57 10° ENE night (unlit)
22 Feb - 06:12:27 10° NNW 06:17:38 79° WSW 06:22:18 10° SSE night (unlit)
22 Feb - 18:56:42 10° SSE 19:01:30 26° ESE 19:06:23 10° NE daylight
22 Feb - 20:38:06 10° SW 20:43:40 40° WNW 20:49:18 10° N daylight
23 Feb - 05:26:57 10° NNW 05:32:00 49° ENE 05:36:34 10° SE night (unlit)
23 Feb - 07:11:25 10° WNW 07:13:41 13° WSW 07:15:52 10° SW night (unlit)
23 Feb - 18:13:37 10° SE 18:16:13 13° ESE 18:18:50 10° ENE daylight
23 Feb - 19:52:00 10° SSW 19:57:55 73° WNW 20:03:58 10° NNE daylight
23 Feb - 21:40:12 10° WNW 21:41:16 10° NW 21:42:21 10° NW daylight
24 Feb - 04:41:53 10° N 04:46:09 25° NE 04:50:06 10° ESE night (unlit)
24 Feb - 06:24:07 10° NW 06:28:26 28° WSW 06:32:25 10° SSW night (unlit)
24 Feb - 19:06:30 10° S 19:12:20 61° ESE 19:18:16 10° NNE daylight
24 Feb - 20:50:58 10° W 20:55:08 19° NW 20:59:19 10° N daylight
25 Feb - 03:57:39 10° NNE 04:00:07 13° NE 04:02:29 10° ENE night (unlit)
25 Feb - 05:37:58 10° NNW 05:43:02 62° WSW 05:47:37 10° SSE night (unlit)
25 Feb - 18:21:43 10° SSE 18:26:53 32° ESE 18:32:08 10° NE daylight
25 Feb - 20:03:50 10° WSW 20:09:11 34° WNW 20:14:36 10° N daylight
